Location: Buchberg
(46.9333°N, 15.8500°E)
Time: 18:20:41
(UTC+00:00)

ATLAS 5 CENTAUR R/B - Pass Details

Date: 14 July 2020
Orbit: 534 x 1124 km, 63.4° (Epoch: 03 August)

Event Time Altitude Azimuth Distance (km) Brightness Sun altitude
Rises 01:35:16 0° 320° (NW) 3,262 5.4 -13.3°
Reaches altitude 10° 01:37:31 10° 321° (NW) 2,416 4.8 -13.1°
Maximum altitude 01:43:12 88° 50° (NE) 925 2.4 -12.5°
Drops below altitude 10° 01:49:51 10° 141° (SE) 2,804 4.8 -11.8°
Sets 01:52:38 0° 142° (SE) 3,820 5.5 -11.5°
